Flag for U.S.A. Weather past 2 weeks in Dallas, Texas, U.S.A.

Now
86 °F

Passing clouds.


Feels Like: 86 °F
Forecast: 78 / 98 °F
Wind: 9 mph from South

Location: Dallas Love Field

Current Time: Aug 4, 2015 at 3:37:03 AM

Latest Report: Aug 4, 2015 at 2:53 AM


Visibility: 10 mi

Pressure: 29.87 "Hg

Humidity: 43%

Dew point: 61 °F

Location of DallasLocation

Historic Weather in Dallas — Graph

°F

Dallas temperature yesterday

Maximum temperature yesterday: 100 °F (at 4:53 PM)
Minimum temperature yesterday: 78 °F (at 6:53 AM)
Average temperature yesterday: 90 °F

Past Weeks' High & Low Weather Summary

 TemperatureHumidityPressure
High103 °F (Jul 30, 4:53 PM)72% (Jul 23, 6:53 AM)30.07 "Hg (Jul 23, 6:53 AM)
Low78 °F (Aug 3, 6:53 AM)23% (Aug 1, 5:53 PM)29.77 "Hg (Jul 21, 6:53 PM)
Average90 °F45%29.91 "Hg
* Reported Jul 20 1:53 AM — Aug 4 1:53 AM, Dallas, Weather by CustomWeather, © 2015

Note: Actual official high and low records may vary slightly from our data, if they occured in-between our weather recording intervals... More about our weather records

Advertising

Dallas weather history for previous 24 hours

 ConditionsComfort  
Time TempWeatherWind HumidityBarometerVisibility
1:53 AM
Tue, Aug 4
87 °FPassing clouds.9 mph42%29.87 "Hg10 mi
12:53 AM88 °FPassing clouds.9 mph42%29.87 "Hg10 mi
11:53 PM
Mon, Aug 3
88 °FPassing clouds.8 mph42%29.86 "Hg10 mi
10:53 PM90 °FPassing clouds.9 mph39%29.87 "Hg10 mi
9:53 PM91 °FPassing clouds.13 mph37%29.85 "Hg10 mi
8:53 PM93 °FPassing clouds.15 mph33%29.84 "Hg10 mi
7:53 PM95 °FPassing clouds.16 mph30%29.83 "Hg10 mi
6:53 PM98 °FBroken clouds.12 mph27%29.82 "Hg10 mi
5:53 PM97 °FPartly sunny.3 mph27%29.83 "Hg10 mi
4:53 PM100 °FBroken clouds.3 mph23%29.84 "Hg10 mi
3:53 PM98 °FScattered clouds.7 mph25%29.85 "Hg10 mi
2:53 PM98 °FScattered clouds.6 mph28%29.86 "Hg10 mi
1:53 PM98 °FScattered clouds.7 mph27%29.88 "Hg10 mi
12:53 PM96 °FScattered clouds.7 mph28%29.89 "Hg10 mi
11:53 AM95 °FScattered clouds.3 mph34%29.91 "Hg10 mi
10:53 AM91 °FPartly sunny.3 mph39%29.91 "Hg10 mi
9:53 AM88 °FPartly sunny.5 mph43%29.91 "Hg10 mi
8:53 AM84 °FScattered clouds.5 mph51%29.90 "Hg10 mi
7:53 AM81 °FPartly sunny.5 mph54%29.89 "Hg10 mi
6:53 AM78 °FPassing clouds.5 mph60%29.88 "Hg10 mi
5:53 AM81 °FPassing clouds.6 mph51%29.86 "Hg10 mi
4:53 AM83 °FPassing clouds.6 mph48%29.85 "Hg10 mi
3:53 AM82 °FPassing clouds.7 mph48%29.84 "Hg10 mi
Weather by CustomWeather, © 2015

See weather overviewHow to use our weather pages